Weather History for Colby, KS

Change the Weather History Date:

Friday, March 22, 2013

  Actual Average (KGLD) Record (KGLD)
Temperature  
Mean Temperature 38 °F 42 °F  
Max Temperature 51 °F 57 °F 83 °F (1916)
Min Temperature 24 °F 28 °F 3 °F (1912)
Degree Days  
Heating Degree Days 28 23  
Month to date heating degree days 565  
Since 1 July heating degree days 4982  
Cooling Degree Days 0 0  
Month to date cooling degree days 0  
Year to date cooling degree days 0  
Moisture  
Dew Point 29 °F    
Average Humidity 73    
Maximum Humidity 100    
Minimum Humidity 37    
Precipitation  
Precipitation 0.00 in 0.03 in 1.40 in (1897)
Month to date precipitation 0.70  
Year to date precipitation 1.57  
Snow  
Snow 0.00 in 0.30 in - ()
Month to date snowfall 4.6  
Since 1 July snowfall 28.6  
Snow Depth -    
Sea Level Pressure  
Sea Level Pressure 29.84 in    
Wind  
Wind Speed 9 mph (North)    
Max Wind Speed 23 mph    
Max Gust Speed 28 mph    
Visibility 9 miles    
Events Fog , Rain , Snow    
T = Trace of Precipitation, MM = Missing Value Source: NWS Daily Summary

Daily Weather History Graph

Daily Weather History Graph

Search for Another Location

Airport:

Trip Planner

Search our weather history database for the weather conditions in past years. The results will help you decide how hot, cold, wet, or windy it might be!

Date:

Astronomy

Mar. 22, 2013 Rise Set
Actual Time 7:43 AM CDT 7:58 PM CDT
Civil Twilight 7:17 AM CDT 8:25 PM CDT
Nautical Twilight 6:45 AM CDT 8:56 PM CDT
Astronomical Twilight 6:13 AM CDT 9:28 PM CDT
Moon 3:28 PM CDT 4:44 AM CDT
Length of Visible Light 13h 08m
Length of Day
12h 14m
Waxing Gibbous, 77% of the Moon is Illuminated
Mar 22
Waxing Gibbous
Mar 27
Full
Apr 2
Last Quarter
Apr 10
New
Apr 18
First Quarter

Hourly Weather History & Observations

Time (CDT) Temp. Windchill Dew Point Humidity Pressure Visibility Wind Dir Wind Speed Gust Speed Precip Events Conditions
12:15 AM 33.8 °F 25.8 °F 30.2 °F 87% 29.84 in 10.0 mi ESE 10.4 mph - N/A   Mostly Cloudy
12:35 AM 32.0 °F 24.8 °F 30.2 °F 93% 29.84 in 10.0 mi ESE 8.1 mph - N/A   Scattered Clouds
12:55 AM 32.0 °F 26.4 °F 30.2 °F 93% 29.86 in 10.0 mi SE 5.8 mph - N/A   Mostly Cloudy
1:15 AM 32.0 °F 26.4 °F 30.2 °F 93% 29.86 in 10.0 mi SE 5.8 mph - N/A   Overcast
1:35 AM 32.0 °F 28.7 °F 30.2 °F 93% 29.86 in 10.0 mi South 3.5 mph - N/A   Scattered Clouds
1:55 AM 32.0 °F 27.5 °F 28.4 °F 87% 29.86 in 10.0 mi SSW 4.6 mph - N/A   Clear
2:15 AM 26.6 °F 18.2 °F 26.6 °F 100% 29.86 in 10.0 mi SW 8.1 mph - N/A   Clear
2:35 AM 26.6 °F 22.6 °F 24.8 °F 93% 29.87 in 10.0 mi West 3.5 mph - N/A   Scattered Clouds
2:55 AM 26.6 °F 19.1 °F 24.8 °F 93% 29.86 in 10.0 mi SW 6.9 mph - N/A   Mostly Cloudy
3:15 AM 24.8 °F 17.9 °F 24.8 °F 100% 29.87 in 10.0 mi West 5.8 mph - N/A   Mostly Cloudy
3:35 AM 28.4 °F - 28.4 °F 100% 29.86 in 10.0 mi Calm Calm - N/A   Overcast
3:55 AM 30.2 °F - 30.2 °F 100% 29.87 in 10.0 mi Calm Calm - N/A   Overcast
4:15 AM 30.2 °F 26.7 °F 28.4 °F 93% 29.86 in 10.0 mi SSW 3.5 mph - N/A   Overcast
4:35 AM 28.4 °F 22.2 °F 28.4 °F 100% 29.86 in 10.0 mi SSW 5.8 mph - N/A   Overcast
4:55 AM 28.4 °F 23.3 °F 28.4 °F 100% 29.86 in 10.0 mi SSW 4.6 mph - N/A   Mostly Cloudy
5:15 AM 28.4 °F 23.3 °F 28.4 °F 100% 29.85 in 10.0 mi SW 4.6 mph - N/A   Clear
5:35 AM 26.6 °F 20.0 °F 26.6 °F 100% 29.84 in 7.0 mi SSW 5.8 mph - N/A   Clear
6:15 AM 26.6 °F 18.2 °F 26.6 °F 100% 29.85 in 0.5 mi WSW 8.1 mph - N/A Fog Light Freezing Fog
6:35 AM 28.4 °F 20.4 °F 28.4 °F 100% 29.85 in 5.0 mi West 8.1 mph - N/A   Mostly Cloudy
6:55 AM 26.6 °F 19.1 °F 26.6 °F 100% 29.85 in 7.0 mi WSW 6.9 mph - N/A   Scattered Clouds
7:15 AM 24.8 °F 17.9 °F 24.8 °F 100% 29.85 in 4.0 mi West 5.8 mph - N/A   Clear
7:35 AM 28.4 °F 18.5 °F 28.4 °F 100% 29.86 in 2.5 mi West 11.5 mph - N/A   Scattered Clouds
7:55 AM 30.2 °F 20.8 °F 30.2 °F 100% 29.87 in 7.0 mi West 11.5 mph - N/A   Scattered Clouds
8:15 AM 32.0 °F 23.0 °F 32.0 °F 100% 29.87 in 10.0 mi West 11.5 mph - N/A   Clear
8:35 AM 32.0 °F 23.0 °F 32.0 °F 100% 29.88 in 10.0 mi West 11.5 mph - N/A   Clear
8:55 AM 33.8 °F 24.8 °F 32.0 °F 93% 29.87 in 10.0 mi WNW 12.7 mph - N/A   Clear
9:15 AM 35.6 °F 28.0 °F 32.0 °F 87% 29.88 in 10.0 mi West 10.4 mph - N/A   Clear
9:35 AM 35.6 °F 27.1 °F 32.0 °F 87% 29.88 in 10.0 mi WNW 12.7 mph - N/A   Clear
9:55 AM 37.4 °F 29.3 °F 32.0 °F 81% 29.87 in 10.0 mi WNW 12.7 mph - N/A   Clear
10:15 AM 39.2 °F 31.2 °F 32.0 °F 75% 29.86 in 10.0 mi NW 13.8 mph 18.4 mph N/A   Clear
10:35 AM 41.0 °F 33.5 °F 32.0 °F 70% 29.86 in 10.0 mi NNW 13.8 mph - N/A   Clear
10:55 AM 41.0 °F 34.3 °F 32.0 °F 70% 29.87 in 10.0 mi NW 11.5 mph - N/A   Clear
11:15 AM 42.8 °F 36.6 °F 32.0 °F 66% 29.86 in 10.0 mi NW 11.5 mph 18.4 mph N/A   Clear
11:35 AM 42.8 °F 36.6 °F 32.0 °F 66% 29.87 in 10.0 mi NW 11.5 mph 19.6 mph N/A   Clear
11:55 AM 44.6 °F 38.4 °F 32.0 °F 61% 29.86 in 10.0 mi NW 12.7 mph 18.4 mph N/A   Clear
12:15 PM 44.6 °F 38.8 °F 32.0 °F 61% 29.86 in 10.0 mi NW 11.5 mph 17.3 mph N/A   Clear
12:35 PM 44.6 °F 39.2 °F 32.0 °F 61% 29.85 in 10.0 mi NW 10.4 mph - N/A   Clear
12:55 PM 46.4 °F 41.5 °F 30.2 °F 53% 29.85 in 10.0 mi NNW 10.4 mph 17.3 mph N/A   Clear
1:15 PM 46.4 °F 40.7 °F 30.2 °F 53% 29.84 in 10.0 mi NNW 12.7 mph 17.3 mph N/A   Clear
1:35 PM 48.2 °F - 30.2 °F 50% 29.84 in 10.0 mi NW 11.5 mph 17.3 mph N/A   Clear
1:55 PM 48.2 °F - 28.4 °F 46% 29.84 in 10.0 mi NNE 9.2 mph 19.6 mph N/A   Clear
2:15 PM 48.2 °F - 28.4 °F 46% 29.83 in 10.0 mi Calm Calm - N/A   Clear
2:35 PM 50.0 °F - 28.4 °F 43% 29.82 in 10.0 mi NNE 11.5 mph - N/A   Clear
2:55 PM 50.0 °F - 28.4 °F 43% 29.81 in 10.0 mi Calm Calm - N/A   Mostly Cloudy
3:15 PM 50.0 °F - 28.4 °F 43% 29.80 in 10.0 mi NNE 5.8 mph - N/A   Scattered Clouds
3:35 PM 50.0 °F - 26.6 °F 40% 29.80 in 10.0 mi North 5.8 mph - N/A   Mostly Cloudy
3:55 PM 51.8 °F - 26.6 °F 38% 29.79 in 10.0 mi ENE 6.9 mph - N/A   Scattered Clouds
4:15 PM 50.0 °F - 26.6 °F 40% 29.79 in 10.0 mi North 4.6 mph - N/A   Mostly Cloudy
4:35 PM 50.0 °F - 24.8 °F 37% 29.79 in 10.0 mi NW 4.6 mph - N/A   Overcast
4:55 PM 51.8 °F - 26.6 °F 38% 29.79 in 10.0 mi NE 5.8 mph - N/A   Overcast
5:15 PM 50.0 °F - 26.6 °F 40% 29.79 in 10.0 mi Calm Calm - N/A   Overcast
5:35 PM 51.8 °F - 26.6 °F 38% 29.78 in 10.0 mi East 11.5 mph - N/A   Overcast
5:55 PM 51.8 °F - 26.6 °F 38% 29.77 in 10.0 mi ENE 10.4 mph - N/A   Overcast
6:15 PM 51.8 °F - 26.6 °F 38% 29.77 in 10.0 mi ENE 9.2 mph - N/A   Scattered Clouds
6:35 PM 51.8 °F - 26.6 °F 38% 29.77 in 10.0 mi ENE 9.2 mph - N/A   Clear
6:55 PM 50.0 °F - 26.6 °F 40% 29.77 in 10.0 mi ENE 10.4 mph 16.1 mph N/A   Clear
7:15 PM 50.0 °F - 26.6 °F 40% 29.77 in 10.0 mi ENE 15.0 mph - N/A   Clear
7:35 PM 46.4 °F 41.5 °F 26.6 °F 46% 29.77 in 10.0 mi ENE 10.4 mph - N/A   Mostly Cloudy
7:55 PM 44.6 °F 38.1 °F 28.4 °F 53% 29.78 in 10.0 mi ENE 13.8 mph - N/A   Overcast
8:15 PM 44.6 °F 37.2 °F 30.2 °F 57% 29.78 in 10.0 mi ENE 17.3 mph 21.9 mph N/A   Overcast
8:35 PM 41.0 °F 32.2 °F 30.2 °F 65% 29.77 in 10.0 mi ENE 18.4 mph - N/A   Mostly Cloudy
8:55 PM 41.0 °F 31.6 °F 30.2 °F 65% 29.77 in 10.0 mi ENE 20.7 mph 25.3 mph N/A   Overcast
9:15 PM 41.0 °F 31.1 °F 30.2 °F 65% 29.78 in 10.0 mi ENE 23.0 mph 27.6 mph N/A   Overcast
9:35 PM 41.0 °F 32.5 °F 32.0 °F 70% 29.82 in 10.0 mi ENE 17.3 mph 26.5 mph N/A   Overcast
9:55 PM 39.2 °F 29.0 °F 33.8 °F 81% 29.84 in 10.0 mi East 21.9 mph 26.5 mph N/A   Overcast
10:15 PM 39.2 °F 29.0 °F 33.8 °F 81% 29.83 in 10.0 mi East 21.9 mph 26.5 mph N/A   Overcast
10:35 PM 37.4 °F 27.2 °F 33.8 °F 87% 29.84 in 10.0 mi East 19.6 mph - N/A   Light Drizzle
10:55 PM 35.6 °F 24.5 °F 33.8 °F 93% 29.86 in 5.0 mi East 20.7 mph 25.3 mph N/A Rain Light Rain
11:15 PM 33.8 °F 23.9 °F 33.8 °F 100% 29.88 in 1.2 mi East 15.0 mph 21.9 mph N/A Snow Light Snow
11:35 PM 33.8 °F 25.8 °F 33.8 °F 100% 29.88 in 0.8 mi ENE 10.4 mph - N/A Snow Light Snow
11:55 PM 32.0 °F 21.2 °F 32.0 °F 100% 29.88 in 0.5 mi ENE 16.1 mph - N/A Snow Snow